Regional Weather Roundup
Issued by NWS Green Bay, WI

Home | Current Version | Previous Version | Graphics & Text | Print | Product List | Glossary Off
Versions: 1 2 3 4 5 6 7 8 9 10 11 12 13 14 15 16 17 18 19 20 21 22 23 24 25 26 27 28 29 30 31 32 33 34 35 36 37 38 39 40 41 42 43 44 45 46 47 48 49 50

000
ASUS43 KGRB 020559
RWRGRB

NORTH-CENTRAL AND NORTHEAST WISCONSIN REGIONAL WEATHER ROUNDUP
NATIONAL WEATHER SERVICE GREEN BAY WI
100 AM CDT THU OCT 02 2014

WIZ005-009-010>012-018-019-020700-
NORTH CENTRAL WISCONSIN

CITY           SKY/WX    TMP DP  RH WIND       PRES   REMARKS
IRONWOOD       NOT AVBL
MANITOWISH WTR NOT AVBL
ARBOR VITAE    NOT AVBL
EAGLE RIVER    NOT AVBL
LAND O LAKES   NOT AVBL
RHINELANDER    CLOUDY    53  51  93 SE5       29.89S
PHILLIPS       CLOUDY    54  53  97 CALM      29.86S
ANTIGO         NOT AVBL
TOMAHAWK       NOT AVBL
MERRILL        NOT AVBL
$$

WIZ013-073-020700-
NORTHEAST WISCONSIN

CITY           SKY/WX    TMP DP  RH WIND       PRES   REMARKS
IRON MOUNTAIN  CLOUDY    53  51  93 S7        29.90S
MARINETTE      NOT AVBL
$$

WIZ017-030-035>037-045-020700-
CENTRAL WISCONSIN

CITY           SKY/WX    TMP DP  RH WIND       PRES   REMARKS
MEDFORD        NOT AVBL
WAUSAU         CLOUDY    56  52  86 SE6       29.87S
MOSINEE        NOT AVBL
MARSHFIELD     CLOUDY    58  54  86 SE6       29.86S
WISC RAPIDS    CLOUDY    57  55  93 SE6       29.87F
STEVENS POINT  NOT AVBL
WAUPACA        NOT AVBL
SHAWANO        CLOUDY    56  54  91 E5        29.90S FOG
CLINTONVILLE   CLOUDY    54  52  94 CALM      29.89S FOG
$$

WIZ038-039-048-051-020700-
FOX VALLEY

CITY           SKY/WX    TMP DP  RH WIND       PRES   REMARKS
NWS GREEN BAY  CLOUDY    58  55  90 SE6       29.89F
APPLETON       NOT AVBL
OSHKOSH        CLOUDY    58  55  90 SE3       29.87F
FOND DU LAC    CLOUDY    60  54  80 S6        29.88S
$$

WIZ022-050-052-020700-
EAST CENTRAL WISCONSIN

CITY           SKY/WX    TMP DP  RH WIND       PRES   REMARKS
STURGEON BAY   NOT AVBL
MANITOWOC      NOT AVBL
SHEBOYGAN      CLOUDY    61  55  81 S8        29.89F
$$

LMZ563-521-522-541>543-020700-
LAKESHORE

STATION/POSITION TIME  TEMP    WIND        PRES    VSBY  WAVE
                       AIR SEA DIR/SP/G                  HT/PER
                 (UTC) (F)     (DEG/KT/KT) (MB)    (MI)  (FT/S)
SHEBOYGAN LKSHOR 0500   58 56  160/  9/ 10 1012.8F
KEWAUNEE LKSHORE 0500   55     160/  3/  5 1012.2
NORTHPORT PIER   0500   57     160/  6/  9 1013.5S
N MID LAKE BUOY  0500   58 58  160/ 10/ 12 1013.8F         2/ 4
S GREEN BAY BUOY 0500   58     VRB 10/ 14  1013.5F
CHAMBERS ISLAND  0500   56     140/  3/  7 1013.2F
MENOMINEE LKSHOR 0500   56     140/  9/ 12 1013.2
$$


USA.gov is the U.S. government's official web portal to all federal, state and local government web resources and services.